Location: Le Hiès Ruisseau
(43.3000°N, 0.4500°W)
Time: 13:51:17
(UTC+00:00)

CZ-4B R/B - Pass Details

Date: 28 January 2023
Orbit: 809 x 881 km, 99.0° (Epoch: 20 March)

Event Time Altitude Azimuth Distance (km) Brightness Sun altitude
Rises 19:08:41 0° 170° (S) 3,316 6.2 -22.0°
Reaches altitude 10° 19:11:01 10° 172° (S) 2,393 5.5 -22.4°
Maximum altitude 19:16:17 71° 257° (WSW) 866 3.3 -23.4°
Drops below altitude 10° 19:21:40 10° 342° (NNW) 2,443 5.8 -24.3°
Sets 19:24:04 0° 344° (NNW) 3,391 6.5 -24.8°
